QPF
0.00 0.00 0.00 0.00 0.00 0.00 0.00 0.01 0.01 0.01 0.00 0.00 0.00 0.01 0.01 0.02 0.02 0.03 0.05 0.05 0.05 0.03 0.03 0.03 0.03 0.03 0.03 0.02 0.03 0.04 0.04 0.03 0.02 0.02 0.03 0.04 0.05 0.06 0.06 0.05 0.04 0.04 0.08
0.00 0.00 0.00 0.00 0.00 0.00 0.00 0.00 0.00 0.01 0.00 0.00 0.00 0.00 0.00 0.01 0.02 0.03 0.03 0.04 0.04 0.03 0.02 0.04 0.03 0.03 0.02 0.03 0.05 0.05 0.04 0.02 0.02 0.02 0.03 0.03 0.03 0.02 0.03 0.04 0.04 0.06 0.08
0.00 0.00 0.00 0.01 0.01 0.00 0.00 0.00 0.00 0.01 0.00 0.00 0.00 0.00 0.00 0.00 0.00 0.01 0.02 0.03 0.04 0.03 0.02 0.03 0.03 0.03 0.03 0.03 0.05 0.05 0.04 0.03 0.03 0.02 0.02 0.02 0.02 0.01 0.02 0.03 0.05 0.06 0.06
0.00 0.00 0.01 0.02 0.02 0.01 0.00 0.00 0.00 0.00 0.00 0.00 0.00 0.00 0.00 0.01 0.00 0.01 0.03 0.04 0.04 0.03 0.03 0.03 0.06 0.07 0.06 0.05 0.05 0.05 0.04 0.03 0.03 0.03 0.03 0.03 0.02 0.02 0.02 0.02 0.03 0.04 0.04
0.00 0.00 0.01 0.02 0.01 0.01 0.01 0.00 0.00 0.00 0.00 0.00 0.00 0.01 0.01 0.01 0.00 0.01 0.02 0.03 0.04 0.03 0.03 0.03 0.04 0.06 0.07 0.06 0.05 0.04 0.03 0.03 0.03 0.03 0.05 0.04 0.02 0.01 0.01 0.01 0.02 0.02 0.03
0.00 0.00 0.00 0.01 0.01 0.00 0.00 0.00 0.00 0.00 0.00 0.00 0.00 0.01 0.02 0.01 0.01 0.01 0.01 0.02 0.03 0.03 0.04 0.03 0.03 0.04 0.04 0.03 0.03 0.05 0.04 0.03 0.03 0.03 0.04 0.03 0.02 0.02 0.02 0.02 0.01 0.01 0.02
0.00 0.00 0.00 0.01 0.01 0.00 0.00 0.00 0.00 0.00 0.00 0.00 0.00 0.01 0.02 0.03 0.02 0.02 0.02 0.03 0.03 0.03 0.02 0.02 0.03 0.02 0.02 0.02 0.02 0.04 0.03 0.02 0.02 0.02 0.02 0.02 0.02 0.01 0.01 0.02 0.02 0.01 0.01
0.00 0.01 0.01 0.01 0.01 0.01 0.00 0.00 0.00 0.00 0.01 0.02 0.02 0.03 0.04 0.04 0.04 0.04 0.04 0.04 0.04 0.03 0.02 0.02 0.02 0.02 0.02 0.03 0.05 0.03 0.02 0.01 0.01 0.01 0.01 0.01 0.03 0.02 0.02 0.02 0.02 0.01 0.00
0.01 0.01 0.01 0.01 0.01 0.00 0.00 0.00 0.00 0.01 0.02 0.04 0.05 0.06 0.06 0.07 0.05 0.05 0.04 0.04 0.03 0.03 0.02 0.02 0.02 0.02 0.02 0.04 0.05 0.04 0.02 0.01 0.01 0.01 0.01 0.01 0.02 0.03 0.04 0.04 0.03 0.02 0.01
0.01 0.01 0.01 0.00 0.00 0.01 0.01 0.00 0.00 0.01 0.03 0.04 0.05 0.06 0.07 0.08 0.05 0.02 0.04 0.04 0.03 0.02 0.01 0.02 0.02 0.01 0.02 0.03 0.04 0.03 0.03 0.02 0.01 0.01 0.02 0.02 0.02 0.03 0.04 0.04 0.03 0.03 0.02
0.01 0.01 0.01 0.01 0.00 0.00 0.00 0.00 0.01 0.02 0.02 0.03 0.03 0.03 0.03 0.03 0.03 0.02 0.02 0.04 0.03 0.02 0.01 0.01 0.02 0.01 0.01 0.02 0.03 0.03 0.03 0.02 0.02 0.02 0.04 0.03 0.03 0.03 0.03 0.04 0.04 0.05 0.06
0.03 0.01 0.01 0.00 0.01 0.01 0.01 0.01 0.01 0.02 0.03 0.04 0.04 0.03 0.02 0.01 0.02 0.03 0.02 0.03 0.02 0.01 0.01 0.00 0.01 0.01 0.02 0.02 0.03 0.05 0.05 0.03 0.03 0.04 0.03 0.02 0.02 0.02 0.02 0.03 0.04 0.05 0.06
0.02 0.01 0.01 0.01 0.01 0.01 0.01 0.02 0.03 0.05 0.04 0.06 0.06 0.03 0.02 0.02 0.02 0.02 0.02 0.02 0.02 0.01 0.01 0.00 0.00 0.01 0.01 0.02 0.03 0.03 0.03 0.03 0.04 0.03 0.02 0.02 0.01 0.01 0.01 0.01 0.02 0.02 0.02
0.02 0.02 0.02 0.03 0.03 0.02 0.03 0.04 0.04 0.03 0.03 0.04 0.04 0.03 0.03 0.03 0.03 0.03 0.02 0.02 0.01 0.01 0.01 0.00 0.00 0.00 0.01 0.01 0.02 0.03 0.03 0.04 0.03 0.03 0.02 0.02 0.02 0.01 0.01 0.02 0.03 0.02 0.02
0.03 0.04 0.04 0.05 0.05 0.04 0.03 0.04 0.05 0.05 0.04 0.05 0.06 0.06 0.06 0.06 0.05 0.04 0.03 0.02 0.02 0.02 0.02 0.01 0.00 0.00 0.01 0.01 0.01 0.02 0.02 0.02 0.02 0.02 0.02 0.01 0.01 0.01 0.01 0.02 0.03 0.03 0.02
0.01 0.02 0.03 0.06 0.06 0.06 0.06 0.08 0.07 0.07 0.07 0.08 0.08 0.09 0.08 0.05 0.05 0.03 0.03 0.03 0.03 0.03 0.02 0.02 0.01 0.00 0.01 0.01 0.01 0.01 0.02 0.02 0.02 0.01 0.01 0.01 0.01 0.01 0.02 0.03 0.03 0.01 0.01
0.01 0.01 0.02 0.06 0.07 0.08 0.11 0.12 0.10 0.09 0.09 0.09 0.09 0.07 0.06 0.04 0.03 0.03 0.04 0.05 0.05 0.05 0.04 0.02 0.01 0.01 0.01 0.02 0.03 0.03 0.02 0.02 0.01 0.01 0.01 0.01 0.01 0.02 0.02 0.02 0.02 0.01 0.01
0.01 0.01 0.02 0.03 0.03 0.03 0.05 0.06 0.07 0.08 0.06 0.04 0.04 0.04 0.04 0.05 0.04 0.05 0.07 0.06 0.08 0.09 0.05 0.03 0.02 0.01 0.02 0.03 0.03 0.02 0.02 0.01 0.01 0.01 0.01 0.01 0.01 0.02 0.02 0.02 0.02 0.02 0.02
0.01 0.01 0.01 0.01 0.01 0.01 0.02 0.02 0.02 0.03 0.03 0.03 0.03 0.03 0.04 0.04 0.04 0.05 0.07 0.06 0.07 0.10 0.06 0.03 0.03 0.02 0.03 0.03 0.03 0.02 0.02 0.02 0.01 0.01 0.01 0.01 0.01 0.01 0.01 0.02 0.01 0.01 0.01
0.01 0.01 0.01 0.01 0.01 0.02 0.02 0.02 0.02 0.01 0.02 0.03 0.04 0.07 0.06 0.06 0.05 0.06 0.08 0.07 0.07 0.09 0.08 0.08 0.08 0.07 0.06 0.04 0.04 0.04 0.03 0.02 0.02 0.01 0.01 0.01 0.01 0.01 0.01 0.01 0.01 0.01 0.01
0.02 0.02 0.03 0.02 0.03 0.03 0.03 0.03 0.03 0.02 0.02 0.02 0.03 0.06 0.08 0.08 0.08 0.09 0.11 0.12 0.10 0.11 0.11 0.11 0.10 0.08 0.06 0.05 0.05 0.04 0.03 0.02 0.02 0.02 0.01 0.01 0.01 0.01 0.01 0.01 0.01 0.01 0.01
0.05 0.05 0.06 0.05 0.05 0.06 0.06 0.05 0.05 0.04 0.03 0.03 0.04 0.05 0.06 0.07 0.09 0.11 0.12 0.12 0.12 0.12 0.09 0.07 0.05 0.06 0.06 0.06 0.05 0.04 0.03 0.02 0.02 0.02 0.02 0.02 0.02 0.02 0.01 0.01 0.01 0.01 0.01
0.07 0.05 0.05 0.05 0.05 0.04 0.04 0.05 0.07 0.05 0.04 0.05 0.05 0.06 0.09 0.11 0.11 0.16 0.19 0.20 0.20 0.15 0.09 0.06 0.05 0.04 0.04 0.03 0.04 0.05 0.06 0.05 0.04 0.03 0.03 0.02 0.01 0.02 0.02 0.02 0.01 0.01 0.01
0.05 0.04 0.03 0.03 0.03 0.03 0.03 0.02 0.02 0.02 0.02 0.04 0.05 0.05 0.06 0.11 0.12 0.11 0.11 0.10 0.11 0.11 0.08 0.05 0.04 0.03 0.04 0.05 0.06 0.07 0.07 0.05 0.04 0.03 0.02 0.02 0.01 0.01 0.02 0.03 0.02 0.02 0.01
0.05 0.04 0.03 0.02 0.02 0.02 0.02 0.01 0.01 0.01 0.02 0.02 0.03 0.04 0.03 0.05 0.05 0.05 0.06 0.06 0.06 0.06 0.05 0.05 0.05 0.05 0.06 0.07 0.07 0.06 0.05 0.04 0.04 0.03 0.02 0.02 0.02 0.02 0.02 0.02 0.04 0.04 0.03
0.05 0.03 0.02 0.02 0.02 0.01 0.01 0.01 0.01 0.02 0.03 0.03 0.02 0.03 0.03 0.03 0.04 0.04 0.05 0.06 0.05 0.06 0.05 0.05 0.04 0.03 0.03 0.03 0.02 0.02 0.02 0.01 0.01 0.01 0.01 0.02 0.02 0.02 0.03 0.03 0.02 0.02 0.03
MSLP
1016.23 1016.30 1016.31 1016.24 1016.13 1016.00 1015.88 1015.82 1015.85 1015.96 1016.13 1016.34 1016.54 1016.68 1016.75 1016.73 1016.64 1016.50 1016.35 1016.23 1016.17 1016.18 1016.26 1016.40 1016.59 1016.78 1016.97 1017.13 1017.25 1017.33 1017.37 1017.38 1017.35 1017.28 1017.18 1017.03 1016.86 1016.66 1016.45 1016.25 1016.07 1015.93 1015.83
1016.23 1016.41 1016.51 1016.51 1016.43 1016.29 1016.14 1016.03 1015.99 1016.06 1016.20 1016.40 1016.59 1016.74 1016.80 1016.76 1016.63 1016.44 1016.22 1016.03 1015.90 1015.86 1015.92 1016.06 1016.24 1016.45 1016.65 1016.82 1016.95 1017.04 1017.09 1017.10 1017.09 1017.06 1017.00 1016.91 1016.79 1016.63 1016.44 1016.23 1016.01 1015.81 1015.62
1016.13 1016.41 1016.61 1016.69 1016.65 1016.52 1016.35 1016.20 1016.12 1016.14 1016.25 1016.43 1016.63 1016.77 1016.84 1016.79 1016.62 1016.38 1016.10 1015.84 1015.65 1015.55 1015.56 1015.65 1015.81 1016.00 1016.19 1016.35 1016.46 1016.54 1016.59 1016.62 1016.64 1016.66 1016.67 1016.66 1016.62 1016.52 1016.38 1016.18 1015.95 1015.69 1015.43
1015.90 1016.26 1016.55 1016.71 1016.72 1016.62 1016.44 1016.26 1016.15 1016.14 1016.24 1016.41 1016.60 1016.76 1016.83 1016.78 1016.61 1016.33 1016.01 1015.70 1015.44 1015.27 1015.21 1015.25 1015.36 1015.51 1015.65 1015.77 1015.86 1015.92 1015.97 1016.02 1016.08 1016.15 1016.24 1016.31 1016.35 1016.34 1016.26 1016.10 1015.87 1015.59 1015.29
1015.55 1015.97 1016.33 1016.55 1016.62 1016.54 1016.37 1016.19 1016.06 1016.03 1016.11 1016.28 1016.49 1016.67 1016.76 1016.72 1016.55 1016.27 1015.92 1015.57 1015.26 1015.03 1014.91 1014.89 1014.94 1015.03 1015.12 1015.20 1015.26 1015.30 1015.34 1015.40 1015.49 1015.61 1015.76 1015.92 1016.05 1016.11 1016.10 1015.99 1015.79 1015.51 1015.20
1015.12 1015.57 1015.98 1016.25 1016.35 1016.30 1016.14 1015.96 1015.82 1015.79 1015.87 1016.04 1016.26 1016.46 1016.58 1016.57 1016.42 1016.15 1015.80 1015.43 1015.09 1014.83 1014.66 1014.59 1014.59 1014.63 1014.68 1014.72 1014.74 1014.76 1014.79 1014.85 1014.95 1015.11 1015.31 1015.52 1015.71 1015.85 1015.90 1015.84 1015.69 1015.45 1015.15
1014.72 1015.16 1015.57 1015.86 1015.98 1015.94 1015.79 1015.61 1015.47 1015.42 1015.50 1015.67 1015.90 1016.11 1016.26 1016.28 1016.16 1015.91 1015.58 1015.22 1014.88 1014.60 1014.42 1014.32 1014.29 1014.30 1014.32 1014.34 1014.34 1014.34 1014.35 1014.41 1014.52 1014.69 1014.90 1015.15 1015.38 1015.56 1015.66 1015.67 1015.57 1015.39 1015.15
1014.41 1014.83 1015.22 1015.50 1015.61 1015.56 1015.40 1015.20 1015.04 1014.98 1015.04 1015.20 1015.42 1015.64 1015.79 1015.84 1015.75 1015.53 1015.23 1014.90 1014.58 1014.32 1014.14 1014.04 1014.01 1014.02 1014.03 1014.04 1014.04 1014.03 1014.03 1014.07 1014.17 1014.32 1014.54 1014.78 1015.03 1015.23 1015.38 1015.44 1015.40 1015.30 1015.14
1014.31 1014.67 1015.02 1015.25 1015.32 1015.24 1015.05 1014.82 1014.63 1014.53 1014.55 1014.68 1014.87 1015.07 1015.21 1015.26 1015.18 1014.99 1014.73 1014.43 1014.15 1013.92 1013.77 1013.70 1013.69 1013.72 1013.75 1013.77 1013.77 1013.76 1013.75 1013.78 1013.85 1013.98 1014.17 1014.39 1014.63 1014.85 1015.02 1015.13 1015.17 1015.15 1015.09
1014.46 1014.76 1015.03 1015.19 1015.20 1015.06 1014.82 1014.54 1014.30 1014.14 1014.11 1014.17 1014.31 1014.46 1014.57 1014.59 1014.51 1014.34 1014.09 1013.83 1013.59 1013.40 1013.30 1013.27 1013.29 1013.35 1013.41 1013.45 1013.47 1013.46 1013.45 1013.46 1013.50 1013.60 1013.75 1013.94 1014.16 1014.38 1014.57 1014.73 1014.85 1014.92 1014.97
1014.89 1015.11 1015.29 1015.35 1015.27 1015.05 1014.74 1014.39 1014.09 1013.87 1013.76 1013.75 1013.81 1013.89 1013.94 1013.91 1013.81 1013.62 1013.39 1013.15 1012.94 1012.79 1012.72 1012.72 1012.78 1012.87 1012.95 1013.02 1013.05 1013.05 1013.04 1013.03 1013.06 1013.13 1013.24 1013.40 1013.60 1013.81 1014.03 1014.23 1014.41 1014.57 1014.73
1015.54 1015.68 1015.75 1015.70 1015.51 1015.20 1014.81 1014.39 1014.03 1013.74 1013.56 1013.47 1013.44 1013.43 1013.40 1013.31 1013.16 1012.95 1012.71 1012.47 1012.27 1012.14 1012.08 1012.10 1012.18 1012.27 1012.37 1012.45 1012.49 1012.49 1012.48 1012.48 1012.49 1012.54 1012.64 1012.78 1012.96 1013.17 1013.39 1013.63 1013.86 1014.10 1014.34
1016.34 1016.37 1016.33 1016.16 1015.86 1015.45 1014.99 1014.51 1014.08 1013.74 1013.49 1013.32 1013.21 1013.11 1013.00 1012.84 1012.63 1012.38 1012.11 1011.85 1011.64 1011.50 1011.44 1011.45 1011.51 1011.59 1011.68 1011.75 1011.78 1011.79 1011.79 1011.79 1011.80 1011.85 1011.95 1012.08 1012.25 1012.46 1012.69 1012.95 1013.22 1013.51 1013.82
1017.17 1017.10 1016.92 1016.63 1016.23 1015.74 1015.21 1014.69 1014.22 1013.83 1013.53 1013.30 1013.12 1012.95 1012.76 1012.53 1012.25 1011.95 1011.64 1011.35 1011.11 1010.93 1010.83 1010.79 1010.81 1010.85 1010.90 1010.94 1010.96 1010.97 1010.98 1010.99 1011.02 1011.09 1011.19 1011.33 1011.51 1011.72 1011.95 1012.22 1012.50 1012.82 1013.16
1017.94 1017.75 1017.45 1017.04 1016.54 1015.98 1015.41 1014.86 1014.37 1013.96 1013.62 1013.35 1013.11 1012.88 1012.63 1012.33 1012.00 1011.65 1011.29 1010.95 1010.66 1010.43 1010.26 1010.16 1010.10 1010.07 1010.07 1010.06 1010.06 1010.06 1010.07 1010.11 1010.18 1010.27 1010.41 1010.57 1010.76 1010.98 1011.21 1011.46 1011.74 1012.05 1012.39
1018.56 1018.24 1017.83 1017.32 1016.74 1016.13 1015.52 1014.96 1014.47 1014.05 1013.71 1013.41 1013.13 1012.85 1012.54 1012.20 1011.82 1011.41 1011.01 1010.62 1010.27 1009.97 1009.72 1009.53 1009.38 1009.27 1009.18 1009.12 1009.08 1009.07 1009.10 1009.17 1009.28 1009.43 1009.61 1009.81 1010.03 1010.25 1010.47 1010.71 1010.96 1011.24 1011.56
1018.99 1018.56 1018.04 1017.44 1016.80 1016.16 1015.54 1014.98 1014.49 1014.07 1013.71 1013.40 1013.09 1012.77 1012.42 1012.04 1011.61 1011.17 1010.72 1010.27 1009.86 1009.48 1009.15 1008.86 1008.61 1008.40 1008.24 1008.11 1008.04 1008.03 1008.08 1008.19 1008.36 1008.57 1008.81 1009.06 1009.31 1009.55 1009.77 1009.98 1010.20 1010.45 1010.73
1019.23 1018.71 1018.10 1017.43 1016.75 1016.08 1015.45 1014.89 1014.41 1013.99 1013.61 1013.27 1012.93 1012.58 1012.19 1011.77 1011.31 1010.83 1010.33 1009.85 1009.37 1008.93 1008.51 1008.13 1007.78 1007.48 1007.24 1007.06 1006.96 1006.94 1007.02 1007.18 1007.42 1007.71 1008.02 1008.33 1008.63 1008.89 1009.11 1009.32 1009.51 1009.72 1009.96
1019.32 1018.72 1018.04 1017.33 1016.62 1015.93 1015.30 1014.73 1014.23 1013.79 1013.39 1013.01 1012.63 1012.23 1011.80 1011.34 1010.85 1010.34 1009.82 1009.29 1008.77 1008.27 1007.78 1007.31 1006.88 1006.51 1006.20 1005.97 1005.85 1005.84 1005.96 1006.18 1006.49 1006.85 1007.25 1007.64 1007.99 1008.30 1008.55 1008.75 1008.94 1009.12 1009.33
1019.31 1018.65 1017.93 1017.19 1016.45 1015.75 1015.10 1014.51 1013.98 1013.50 1013.05 1012.62 1012.18 1011.73 1011.25 1010.75 1010.24 1009.71 1009.16 1008.62 1008.07 1007.52 1006.98 1006.45 1005.96 1005.53 1005.17 1004.91 1004.78 1004.79 1004.94 1005.23 1005.61 1006.07 1006.55 1007.02 1007.44 1007.81 1008.10 1008.33 1008.53 1008.71 1008.91
1019.23 1018.53 1017.79 1017.03 1016.28 1015.56 1014.89 1014.26 1013.69 1013.14 1012.62 1012.11 1011.61 1011.09 1010.57 1010.04 1009.51 1008.97 1008.42 1007.87 1007.31 1006.75 1006.18 1005.62 1005.09 1004.62 1004.23 1003.97 1003.84 1003.87 1004.07 1004.41 1004.87 1005.41 1005.98 1006.53 1007.04 1007.47 1007.83 1008.11 1008.33 1008.54 1008.75
1019.11 1018.39 1017.64 1016.87 1016.11 1015.37 1014.66 1013.98 1013.34 1012.71 1012.11 1011.52 1010.94 1010.37 1009.80 1009.25 1008.71 1008.18 1007.65 1007.11 1006.57 1006.02 1005.45 1004.89 1004.36 1003.88 1003.49 1003.23 1003.12 1003.18 1003.42 1003.82 1004.35 1004.96 1005.61 1006.25 1006.83 1007.34 1007.76 1008.10 1008.37 1008.62 1008.85
1018.93 1018.21 1017.45 1016.68 1015.91 1015.14 1014.39 1013.65 1012.92 1012.21 1011.52 1010.85 1010.19 1009.57 1008.97 1008.41 1007.88 1007.38 1006.90 1006.41 1005.91 1005.40 1004.88 1004.35 1003.84 1003.39 1003.02 1002.78 1002.70 1002.80 1003.08 1003.53 1004.11 1004.78 1005.49 1006.20 1006.85 1007.43 1007.91 1008.31 1008.64 1008.92 1009.19
1018.67 1017.95 1017.20 1016.43 1015.64 1014.83 1014.03 1013.22 1012.42 1011.62 1010.84 1010.08 1009.37 1008.70 1008.10 1007.55 1007.06 1006.61 1006.19 1005.78 1005.36 1004.93 1004.48 1004.01 1003.57 1003.17 1002.85 1002.66 1002.62 1002.76 1003.08 1003.56 1004.18 1004.90 1005.65 1006.40 1007.11 1007.73 1008.27 1008.71 1009.09 1009.41 1009.69
1018.29 1017.58 1016.84 1016.06 1015.25 1014.41 1013.55 1012.67 1011.78 1010.90 1010.04 1009.22 1008.46 1007.77 1007.17 1006.65 1006.22 1005.85 1005.52 1005.22 1004.91 1004.58 1004.23 1003.87 1003.52 1003.21 1002.97 1002.84 1002.86 1003.04 1003.40 1003.91 1004.55 1005.28 1006.06 1006.83 1007.55 1008.20 1008.77 1009.24 1009.64 1009.98 1010.27
1017.79 1017.08 1016.34 1015.55 1014.72 1013.84 1012.93 1011.98 1011.02 1010.06 1009.13 1008.26 1007.46 1006.77 1006.19 1005.72 1005.35 1005.08 1004.86 1004.67 1004.50 1004.31 1004.09 1003.86 1003.63 1003.43 1003.29 1003.25 1003.34 1003.58 1003.96 1004.50 1005.15 1005.87 1006.64 1007.40 1008.12 1008.77 1009.33 1009.81 1010.20 1010.54 1010.82
Thickness
5780 5779 5777 5775 5772 5768 5765 5763 5760 5758 5756 5753 5751 5748 5747 5747 5747 5747 5746 5746 5745 5744 5743 5742 5741 5741 5739 5739 5738 5736 5733 5732 5732 5729 5726 5727 5729 5729 5729 5729 5728 5727 5726
5779 5778 5777 5775 5773 5769 5767 5765 5763 5761 5759 5757 5754 5752 5750 5748 5748 5748 5747 5747 5746 5745 5744 5743 5741 5740 5739 5738 5737 5735 5732 5730 5730 5727 5722 5719 5720 5724 5726 5726 5725 5724 5723
5782 5780 5778 5776 5774 5771 5770 5769 5766 5764 5762 5760 5757 5754 5751 5749 5748 5747 5747 5747 5747 5746 5745 5743 5742 5740 5739 5737 5736 5735 5732 5729 5728 5728 5724 5717 5714 5716 5720 5721 5721 5720 5720
5789 5784 5781 5778 5776 5776 5775 5772 5770 5767 5765 5762 5759 5755 5751 5748 5748 5748 5748 5748 5747 5747 5745 5744 5743 5741 5739 5738 5737 5736 5734 5731 5727 5726 5726 5724 5721 5715 5713 5715 5716 5716 5716
5794 5790 5787 5784 5782 5780 5778 5775 5772 5770 5768 5765 5762 5758 5755 5753 5751 5750 5749 5749 5748 5747 5746 5745 5743 5741 5740 5738 5737 5736 5735 5732 5729 5726 5724 5722 5719 5718 5713 5710 5711 5712 5712
5799 5795 5792 5788 5784 5782 5780 5778 5774 5772 5770 5767 5764 5761 5758 5756 5753 5751 5749 5749 5748 5748 5747 5745 5743 5742 5740 5738 5737 5736 5734 5732 5730 5727 5725 5722 5719 5716 5713 5710 5708 5707 5707
5802 5797 5793 5790 5786 5784 5782 5780 5777 5774 5772 5770 5767 5764 5762 5759 5756 5753 5751 5750 5748 5747 5747 5746 5744 5742 5741 5739 5737 5735 5733 5731 5729 5727 5725 5723 5722 5720 5716 5711 5707 5704 5704
5805 5802 5799 5795 5792 5789 5786 5783 5779 5776 5774 5772 5769 5767 5764 5761 5759 5757 5754 5752 5751 5749 5748 5747 5745 5743 5741 5739 5737 5735 5733 5731 5729 5727 5725 5723 5721 5719 5717 5713 5707 5702 5700
5807 5805 5803 5800 5796 5792 5789 5786 5782 5779 5777 5774 5771 5768 5765 5762 5760 5758 5757 5755 5753 5752 5750 5747 5745 5743 5741 5739 5737 5734 5732 5730 5728 5726 5724 5722 5720 5718 5716 5713 5710 5703 5697
5807 5806 5804 5802 5799 5796 5792 5789 5786 5782 5779 5775 5772 5770 5767 5764 5761 5759 5757 5756 5754 5752 5749 5747 5745 5742 5740 5738 5736 5733 5731 5729 5726 5725 5722 5720 5718 5716 5714 5711 5708 5705 5700
5807 5806 5805 5804 5801 5797 5794 5790 5786 5783 5779 5776 5773 5770 5768 5765 5762 5760 5758 5756 5754 5751 5748 5746 5744 5741 5739 5737 5734 5731 5729 5726 5724 5722 5720 5718 5716 5713 5711 5708 5705 5702 5699
5807 5805 5804 5802 5799 5796 5794 5791 5787 5785 5783 5778 5774 5771 5768 5766 5763 5760 5758 5756 5754 5751 5748 5746 5743 5740 5737 5735 5732 5729 5726 5723 5721 5719 5718 5716 5714 5711 5708 5705 5702 5699 5696
5803 5801 5799 5797 5796 5795 5793 5790 5788 5786 5783 5779 5775 5771 5768 5766 5763 5760 5758 5756 5753 5750 5747 5744 5741 5738 5735 5733 5730 5727 5724 5721 5718 5716 5715 5713 5710 5707 5704 5702 5699 5696 5693
5799 5797 5795 5794 5794 5793 5792 5790 5788 5786 5782 5778 5775 5771 5768 5765 5763 5760 5757 5754 5751 5749 5745 5742 5739 5736 5733 5730 5728 5725 5721 5718 5716 5714 5712 5709 5707 5704 5701 5698 5695 5691 5687
5795 5794 5793 5792 5791 5790 5789 5787 5785 5784 5781 5776 5773 5770 5768 5764 5762 5758 5755 5752 5749 5746 5743 5740 5736 5733 5730 5728 5725 5722 5719 5715 5712 5710 5708 5706 5704 5701 5698 5695 5691 5688 5683
5791 5791 5791 5789 5788 5787 5786 5784 5783 5781 5779 5775 5772 5770 5765 5762 5759 5756 5753 5749 5746 5743 5740 5737 5734 5731 5728 5725 5722 5719 5715 5712 5709 5706 5704 5702 5700 5697 5695 5691 5688 5685 5680
5787 5787 5787 5787 5786 5785 5784 5781 5780 5779 5776 5773 5771 5768 5764 5760 5757 5755 5751 5747 5743 5740 5737 5734 5731 5728 5726 5722 5719 5715 5712 5709 5706 5703 5700 5698 5696 5693 5690 5687 5683 5679 5676
5782 5784 5784 5783 5783 5782 5781 5779 5777 5775 5771 5768 5768 5767 5763 5760 5757 5752 5748 5745 5741 5738 5734 5730 5728 5725 5723 5719 5715 5711 5708 5706 5703 5700 5697 5694 5691 5688 5685 5681 5677 5673 5670
5778 5779 5780 5780 5779 5777 5775 5773 5771 5770 5766 5764 5763 5762 5760 5757 5753 5750 5746 5742 5739 5735 5731 5728 5724 5721 5719 5716 5712 5708 5704 5701 5697 5694 5692 5689 5685 5682 5679 5675 5671 5667 5664
5772 5773 5774 5774 5772 5771 5770 5766 5763 5761 5760 5759 5759 5757 5755 5752 5749 5746 5743 5740 5736 5732 5728 5724 5721 5718 5716 5713 5708 5703 5700 5696 5692 5688 5685 5683 5679 5676 5672 5668 5664 5660 5656
5765 5766 5766 5765 5764 5763 5761 5757 5755 5754 5754 5754 5753 5751 5749 5746 5744 5740 5738 5734 5730 5725 5722 5719 5716 5714 5712 5708 5703 5698 5694 5691 5687 5683 5680 5676 5672 5668 5664 5661 5657 5654 5650
5756 5757 5757 5756 5755 5754 5751 5748 5747 5747 5747 5745 5745 5744 5742 5740 5737 5733 5729 5726 5723 5719 5715 5711 5709 5707 5705 5701 5697 5692 5689 5685 5681 5677 5673 5670 5665 5662 5658 5655 5651 5647 5643
5746 5747 5747 5746 5746 5745 5744 5740 5740 5741 5739 5738 5736 5735 5734 5731 5728 5725 5721 5718 5715 5711 5708 5705 5702 5700 5697 5694 5690 5686 5682 5678 5673 5670 5666 5662 5658 5655 5652 5649 5644 5639 5636
5735 5736 5736 5735 5734 5734 5734 5732 5732 5732 5729 5728 5727 5727 5724 5722 5719 5717 5715 5712 5708 5705 5703 5700 5697 5693 5690 5686 5682 5678 5674 5670 5665 5661 5657 5653 5650 5647 5644 5640 5636 5632 5629
5725 5725 5725 5724 5724 5723 5724 5722 5723 5722 5719 5718 5718 5717 5716 5715 5712 5709 5708 5706 5704 5701 5698 5695 5692 5688 5684 5681 5676 5672 5667 5663 5658 5653 5649 5645 5641 5638 5635 5631 5628 5624 5621
5713 5714 5714 5715 5714 5713 5713 5713 5714 5713 5711 5710 5710 5709 5709 5707 5704 5702 5699 5697 5696 5693 5690 5688 5685 5682 5678 5674 5668 5663 5659 5654 5649 5645 5641 5637 5634 5631 5627 5624 5620 5617 5614